Date String (YYYY-MM-DD hh:mm:ss) UTC,Instrument flags,absolute air pressure of the measurement (hPa),sample flow rate (lpm),inlet stack bypass flow (lpm),air temperature of the measurement (°C),ambient temperature measured by the external sensor (°C),aerosol sample conditioner tube jacket temperature (°C),OPC LED temperature (°C),internal box temperature (°C),relative humidity of the measurement (%),span deviation,mass concentration of particles derived from Lorenz-Mie calculation of OPC scattering (μg/m³),mass concentration of particles derived from Lorenz-Mie calculation of OPC scattering (μg/m³),mass concentration of particles derived from Lorenz-Mie calculation of OPC scattering (μg/m³)
DateTimeUTC,F1_M11,P_M11,Q1_M11,Q2_M11,T1_M11,T2_M11,T3_M11,T4_M11,T5_M11,U1_M11,ZSPAN_M11,X0_M11,X2_M11,X1_M11
2024-04-01 20:00:00,SystemResetWarning,0821.2,5.00,000.00,021.2,020.5,000.0,029.7,023.0,23.4,0000.0,0008.61,0004.62,0004.36
2024-04-01 20:01:00,SystemResetWarning,0821.2,5.00,000.00,021.2,020.5,000.0,029.7,023.0,23.9,0000.0,0008.61,0004.61,0004.35
2024-04-01 20:02:00,SystemResetWarning,0821.1,5.00,000.00,021.2,020.5,000.0,029.7,023.0,24.1,0000.0,0008.38,0004.59,0004.34
2024-04-01 20:03:00,SystemResetWarning,0821.1,5.00,000.00,021.2,020.5,000.0,029.7,023.0,24.0,0000.0,0007.85,0004.57,0004.33
2024-04-01 20:04:00,SystemResetWarning,0821.1,5.00,000.00,021.2,020.4,000.0,029.7,023.0,24.1,0000.0,0007.74,0004.56,0004.33
2024-04-01 20:05:00,SystemResetWarning,0821.3,4.99,000.00,021.2,020.5,000.0,029.7,023.0,25.0,0000.0,0007.43,0004.52,0004.31
2024-04-01 20:06:00,SystemResetWarning,0821.1,5.00,000.00,021.2,020.5,000.0,029.7,023.0,24.3,0000.0,0007.17,0004.47,0004.29
2024-04-01 20:07:00,SystemResetWarning,0821.1,5.00,000.00,021.2,020.5,000.0,029.7,023.0,23.2,0000.0,0007.19,0004.47,0004.28
2024-04-01 20:08:00,SystemResetWarning,0821.1,5.00,000.00,021.2,020.5,000.0,029.7,023.0,23.1,0000.0,0007.12,0004.44,0004.26
2024-04-01 20:09:00,SystemResetWarning,0821.2,5.00,000.00,021.2,020.5,000.0,029.7,023.0,22.6,0000.0,0007.08,0004.39,0004.22
2024-04-01 20:10:00,SystemResetWarning,0821.2,5.00,000.00,021.2,020.5,000.0,029.7,023.0,21.9,0000.0,0005.89,0004.25,0004.09
2024-04-01 20:11:00,SystemResetWarning,0821.2,4.99,000.00,021.2,020.5,000.0,029.7,023.0,22.5,0000.0,0005.64,0004.12,0003.95
2024-04-01 20:12:00,SystemResetWarning,0821.3,5.00,000.00,021.2,020.6,000.0,029.7,023.0,21.8,0000.0,0005.31,0003.95,0003.79
2024-04-01 20:13:00,SystemResetWarning,0821.3,5.00,000.00,021.2,020.6,000.0,029.7,023.0,20.7,0000.0,0005.06,0003.79,0003.63
2024-04-01 20:14:00,SystemResetWarning,0821.3,5.00,000.00,021.2,020.6,000.0,029.7,023.1,19.6,0000.0,0004.74,0003.62,0003.45
2024-04-01 20:15:00,SystemResetWarning,0821.3,4.99,000.00,021.2,020.6,000.0,029.7,023.1,19.4,0000.0,0004.41,0003.43,0003.27
2024-04-01 20:16:00,SystemResetWarning,0821.3,5.01,000.00,021.3,020.6,000.0,029.7,023.1,19.0,0000.0,0004.18,0003.25,0003.06
2024-04-01 20:17:00,SystemResetWarning,0821.4,5.01,000.00,021.3,020.6,000.0,029.7,023.1,19.2,0000.0,0003.96,0003.02,0002.73
2024-04-01 20:18:00,SystemResetWarning,0821.4,5.00,000.00,021.3,020.6,000.0,029.7,023.1,19.9,0000.0,0003.50,0002.64,0002.36
2024-04-01 20:19:00,SystemResetWarning,0821.5,4.99,000.00,021.3,020.7,000.0,029.7,023.1,19.9,0000.0,0003.02,0002.20,0001.96
2024-04-01 20:20:00,SystemResetWarning,0821.9,5.00,000.00,021.3,020.7,000.0,029.7,023.1,20.0,0000.0,0002.52,0001.81,0001.61
2024-04-01 20:21:00,SystemResetWarning,0822.0,5.00,000.00,021.3,020.7,000.0,029.8,023.1,19.4,0000.0,0002.36,0001.62,0001.40
2024-04-01 20:22:00,SystemResetWarning,0821.9,5.00,000.00,021.3,020.7,000.0,029.8,023.1,19.3,0000.0,0002.07,0001.43,0001.23
2024-04-01 20:23:00,SystemResetWarning,0821.6,5.00,000.00,021.3,020.7,000.0,029.8,023.1,19.7,0000.0,0001.88,0001.27,0001.08
2024-04-01 20:24:00,SystemResetWarning,0821.7,5.01,000.00,021.3,020.7,000.0,029.8,023.2,20.1,0000.0,0001.82,0001.15,0000.96
2024-04-01 20:25:00,SystemResetWarning,0821.4,5.00,000.00,021.3,020.7,000.0,029.8,023.2,20.1,0000.0,0001.76,0001.07,0000.87
2024-04-01 20:26:00,SystemResetWarning,0821.4,5.00,000.00,021.3,020.7,000.0,029.8,023.2,19.4,0000.0,0001.66,0000.99,0000.79
2024-04-01 20:27:00,SystemResetWarning,0821.3,5.00,000.00,021.4,020.7,000.0,029.8,023.2,18.8,0000.0,0001.50,0000.92,0000.72
2024-04-01 20:28:00,SystemResetWarning,0821.3,5.00,000.00,021.4,020.8,000.0,029.8,023.2,18.7,0000.0,0001.28,0000.85,0000.66
2024-04-01 20:29:00,SystemResetWarning,0821.3,5.00,000.00,021.4,020.8,000.0,029.8,023.2,18.7,0000.0,0001.19,0000.81,0000.63
2024-04-01 20:30:00,SystemResetWarning,0821.3,5.00,000.00,021.4,020.8,000.0,029.8,023.2,19.0,0000.0,0001.20,0000.81,0000.62
2024-04-01 20:31:00,SystemResetWarning,0821.3,5.00,000.00,021.4,020.8,000.0,029.8,023.2,20.4,0000.0,0001.17,0000.79,0000.60
2024-04-01 20:32:00,SystemResetWarning,0821.3,5.00,000.00,021.4,020.8,000.0,029.8,023.2,20.1,0000.0,0001.18,0000.78,0000.59
2024-04-01 20:33:00,SystemResetWarning,0821.2,5.00,000.00,021.4,020.8,000.0,029.8,023.2,19.2,0000.0,0001.32,0000.81,0000.59
2024-04-01 20:34:00,SystemResetWarning,0821.2,4.99,000.00,021.4,020.8,000.0,029.8,023.2,19.8,0000.0,0001.40,0000.83,0000.59
2024-04-01 20:35:00,SystemResetWarning,0821.2,5.00,000.00,021.4,020.8,000.0,029.9,023.2,19.2,0000.0,0001.43,0000.83,0000.58
2024-04-01 20:36:00,SystemResetWarning,0821.2,5.00,000.00,021.4,020.8,000.0,029.9,023.2,19.7,0000.0,0001.50,0000.83,0000.57
2024-04-01 20:37:00,SystemResetWarning,0821.2,4.99,000.00,021.4,020.8,000.0,029.9,023.3,20.9,0000.0,0001.53,0000.84,0000.58
2024-04-01 20:38:00,SystemResetWarning,0821.2,5.00,000.00,021.4,020.8,000.0,029.9,023.3,20.6,0000.0,0001.51,0000.82,0000.59
2024-04-01 20:39:00,SystemResetWarning,0821.2,5.00,000.00,021.4,020.9,000.0,029.9,023.3,20.6,0000.0,0001.53,0000.82,0000.59
2024-04-01 20:40:00,SystemResetWarning,0821.2,5.00,000.00,021.5,020.9,000.0,029.9,023.3,20.8,0000.0,0001.74,0000.84,0000.60
2024-04-01 20:41:00,SystemResetWarning,0821.1,5.00,000.00,021.5,020.9,000.0,029.9,023.3,20.4,0000.0,0001.79,0000.86,0000.61
2024-04-01 20:42:00,SystemResetWarning,0821.3,5.00,000.00,021.5,020.9,000.0,029.9,023.3,21.0,0000.0,0001.91,0000.91,0000.63
2024-04-01 20:43:00,SystemResetWarning,0821.4,5.00,000.00,021.5,020.9,000.0,029.9,023.3,20.3,0000.0,0001.87,0000.91,0000.65
2024-04-01 20:44:00,SystemResetWarning,0821.5,5.00,000.00,021.5,020.9,000.0,029.9,023.3,20.1,0000.0,0001.83,0000.90,0000.66
2024-04-01 20:45:00,SystemResetWarning,0821.3,5.00,000.00,021.5,020.9,000.0,029.9,023.3,20.0,0000.0,0001.82,0000.92,0000.67
2024-04-01 20:46:00,SystemResetWarning,0821.5,5.00,000.00,021.5,020.9,000.0,029.9,023.3,19.6,0000.0,0001.76,0000.91,0000.68
2024-04-01 20:47:00,SystemResetWarning,0821.2,5.00,000.00,021.5,020.9,000.0,029.9,023.3,18.9,0000.0,0001.60,0000.88,0000.67
2024-04-01 20:48:00,SystemResetWarning,0821.1,4.99,000.00,021.5,020.9,000.0,030.0,023.3,18.3,0000.0,0001.52,0000.85,0000.66
2024-04-01 20:49:00,SystemResetWarning,0821.2,4.99,000.00,021.5,020.9,000.0,030.0,023.3,18.6,0000.0,0001.53,0000.85,0000.65
2024-04-01 20:50:00,SystemResetWarning,0821.2,5.00,000.00,021.5,021.0,000.0,030.0,023.4,18.8,0000.0,0001.67,0000.88,0000.64
2024-04-01 20:51:00,SystemResetWarning,0821.3,5.02,000.00,021.5,021.0,000.0,030.0,023.4,18.4,0000.0,0001.55,0000.88,0000.63
2024-04-01 20:52:00,SystemResetWarning,0821.3,4.99,000.00,021.5,021.0,000.0,030.0,023.4,17.5,0000.0,0001.50,0000.85,0000.62
2024-04-01 20:53:00,SystemResetWarning,0821.3,4.99,000.00,021.5,021.0,000.0,030.0,023.4,18.1,0000.0,0001.38,0000.80,0000.60
2024-04-01 20:54:00,SystemResetWarning,0821.3,5.00,000.00,021.6,021.0,000.0,030.0,023.4,18.8,0000.0,0001.43,0000.81,0000.59
2024-04-01 20:55:00,SystemResetWarning,0821.3,5.02,000.00,021.6,021.0,000.0,030.0,023.4,20.0,0000.0,0001.39,0000.80,0000.58
2024-04-01 20:56:00,SystemResetWarning,0821.3,4.99,000.00,021.6,021.0,000.0,030.0,023.4,20.1,0000.0,0001.31,0000.77,0000.58
2024-04-01 20:57:00,SystemResetWarning,0821.3,4.99,000.00,021.6,021.0,000.0,030.0,023.4,19.7,0000.0,0001.29,0000.79,0000.60
2024-04-01 20:58:00,SystemResetWarning,0821.3,5.00,000.00,021.6,021.0,000.0,030.0,023.4,19.2,0000.0,0001.40,0000.86,0000.63
2024-04-01 20:59:00,SystemResetWarning,0821.2,5.01,000.00,021.6,021.0,000.0,030.0,023.4,18.6,0000.0,0001.46,0000.89,0000.65
